[source: ADDS]
METAR
EDVE 251550Z 24006KT 6000 OVC006 M00/M02 Q1021

TAF EDVE 251400Z 2515/2521 21004KT 8000 OVC009 PROB40 TEMPO 2515/2521 OVC011 EDDV 251620Z 19006KT 150V220 9999 BKN007 01/M01 Q1021 NOSIG

TAF EDDV 251100Z 2512/2612 22004KT 8000 SCT010 BKN025 PROB30 TEMPO 2512/2608 BKN009 BECMG 2604/2606 16006KT ETHS 251620Z AUTO 22005KT 4700 // ////// 02/01 Q1020 ///

ETHC 251620Z 18007KT 8000 FEW008 BKN010 01/M00 Q1021 GRN

EDVK 251620Z VRB02KT 6000 OVC007 M01/M02 Q1020

TAF EDVK 251400Z 2515/2524 VRB03KT 6000 OVC007 TEMPO 2515/2520 3000 BCFG BKN002 BECMG 2519/2521 0200 FG VV001
TAF
TAF EDVE 251400Z 2515/2521 21004KT 8000 OVC009 PROB40 TEMPO 2515/2521 OVC011

TAF EDDV 251100Z 2512/2612 22004KT 8000 SCT010 BKN025 PROB30 TEMPO 2512/2608 BKN009 BECMG 2604/2606 16006KT

TAF EDVK 251400Z 2515/2524 VRB03KT 6000 OVC007 TEMPO 2515/2520 3000 BCFG BKN002 BECMG 2519/2521 0200 FG VV001

SR / SS: 07:09 / 15:50 UTC (EDVE 2020-01-25)
Jens verstärkt als neuer Fluglehrer ab sofort unser FFG-Fluglehrer-Team. Glückwunsch und viel Erfolg beim Ausbilden! +++ Wir beglückwünschen Sebastian zur bestandenen PPL-Theorie-Prüfung! Weiterhin viel Erfolg bei der Ausbildung! +++ Stefan hat die praktische Prüfung bestanden! Herzlichen Glückwunsch und Always Happy Landings! +++ Ein weiteres Mitglied hat die Prüfung zum Fluglehrer gemeistert. Glückwunsch Nico und viel Erfolg beim Ausbilden! +++ Florian Hansmann ist ab sofort als Fluglehrer für die FFG tätig! Danke für das Engagement und viel Spaß mit deinen zukünftigen Schülern! +++ Willkommen im Verein Michael und viel Erfolg für deine Ausbildung! +++ Herzlich Willkommen bei der FFG Jens! +++ Uwe hat die PPL-Prüfung bestanden! Herzlichen Glückwunsch und Always Happy Landings!! +++ Hallo und herzlich Willkommen Lothar! Wir wünschen viel Spaß und Erfolg für die Ausbildung!

wenig -> mittel -> viel

Professionelle Piloten arbeiten mit Checkliste
Ausdrucken und abarbeiten! Vorbereitete Links helfen bei der Beschaffung der notwendigen Informationen.

Weiterlesen ...

Hier gibt es die AIP mit allen erforderlichen Karten die im Abo der FFG liegen zum Download für unsere Mitglieder.

Letztes NOTAM EDVE
von 11.02.2020 0900Z bis 12.02.2020 1200Z
HEHLINGEN DVOR/DME HLZ 117.30 MHZ/CH120X ON MAINTENANCE. DO NOT USE. DISREGARD ALL SIGNALS.

Letztes NOTAM EDCB
von 01.12.2019 0600Z bis 15.03.2020 1751Z
GRAS RWY 09/27 CLSD.

Letztes NOTAM EDBC
von 23.01.2020 2305Z bis 23.04.2020 2359Z
MET SERVICES (AD WARNINGS, METAR, TAF) NOT AVBL.

Letztes NOTAM EDVM
von 30.11.2019 1100Z bis 29.02.2020 1700Z
GRASS RWY 07/25 CLSD.

Letztes NOTAM EDVI
von 15.12.2019 0000Z bis 29.02.2020 2259Z
AERODROME AVBL PPR. PPR REQ TEL. +49(0)163-5744126 OR +49(0)5271-6999060.

Letztes NOTAM EDDV
von 13.02.2020 0900Z bis 13.02.2020 1200Z
WARBURG DVOR/DME WRB 113.70MHZ CH84X OUT OF SERVICE.

Letztes NOTAM EDVK
von 13.02.2020 0900Z bis 13.02.2020 1200Z
WARBURG DVOR/DME WRB 113.70MHZ CH84X OUT OF SERVICE.

          aerodata150     Radio38